{"data":{"norad_id":60462,"epoch":"2026-05-25T03:23:57.941376Z","epoch_age_seconds":62730,"freshness":"FRESH","line1":"1 60462U 24148E   26145.14164284  .00011341  00000+0  47050-3 0  9993","line2":"2 60462  34.9926 305.1410 0005324   6.0696 354.0083 15.23067245 98643","mean_motion":15.23067245,"eccentricity":0.0005324,"inclination_deg":34.9926,"raan_deg":305.141,"arg_perigee_deg":6.0696,"mean_anomaly_deg":354.0083,"bstar":0.0004705,"rev_number":9864,"period_min":94.546055318785,"perigee_km":492.93515423066,"apogee_km":500.25536914291,"semimajor_km":6874.7322616868,"source":"CELESTRAK","updated_at":"2026-05-25T13:38:02.085730Z"}}